Location: Beacon Field Observatory
(38.7700°N, 77.0829°W)
Time: 20:47:29
(UTC-05:00)

UKube-1 - Pass Details

Date: 17 December 2019
Orbit: 614 x 618 km, 98.5° (Epoch: 23 January)

Event Time Altitude Azimuth Distance (km) Brightness Sun altitude
Rises 18:01:57 0° 7° (N) 2,899 ? -13.9°
Reaches altitude 10° 18:04:11 10° 3° (N) 1,990 ? -14.3°
Maximum altitude 18:08:23 53° 287° (WNW) 766 ? -15.1°
Drops below altitude 10° 18:12:34 10° 211° (SSW) 1,976 ? -15.9°
Sets 18:14:46 0° 206° (SSW) 2,877 ? -16.3°
